Hillsdale, MI

3:29 PM EDT on September 22, 2017 (GMT -0400)
Hillsdale Municipal

Weather History for KJYM - March, 2013

Change the Weather History Date:

Tuesday, March 12, 2013

  Actual Average Record
Temperature  
Mean Temperature 32 °F -  
Max Temperature 35 °F 42 °F 70 °F (1990)
Min Temperature 30 °F 23 °F 4 °F (1980)
Degree Days  
Heating Degree Days 32    
Moisture  
Dew Point 28 °F    
Average Humidity 85    
Maximum Humidity 95    
Minimum Humidity 71    
Precipitation  
Precipitation 0.00 in - - ()
Sea Level Pressure  
Sea Level Pressure 29.82 in    
Wind  
Wind Speed 11 mph (WSW)    
Max Wind Speed 16 mph    
Max Gust Speed 26 mph    
Visibility 8 miles    
Events Snow    
Averages and records for this station are not official NWS values.
T = Trace of Precipitation, MM = Missing Value Source: NWS Daily Summary

Daily Weather History Graph

Daily Weather History Graph

Search for Another Location

Airport or City:

Trip Planner

Search our weather history database for the weather conditions in past years. The results will help you decide how hot, cold, wet, or windy it might be!

Date:

Astronomy

Mar. 12, 2013 Rise Set
Actual Time 7:54 AM EDT 7:41 PM EDT
Civil Twilight 7:27 AM EDT 8:09 PM EDT
Nautical Twilight 6:54 AM EDT 8:41 PM EDT
Astronomical Twilight 6:22 AM EDT 9:14 PM EDT
Moon 7:59 AM EDT (3/12) 8:58 PM EDT (3/12)
Length of Visible Light 12h 42m
Length of Day
11h 46m
New Moon, 1% of the Moon is Illuminated
Mar 12
New Moon
Mar 19
First Quarter
Mar 27
Full
Apr 3
Last Quarter
Apr 10
New

Hourly Weather History & Observations

Time (EDT) Temp. Windchill Dew Point Humidity Pressure Visibility Wind Dir Wind Speed Gust Speed Precip Events Conditions
12:14 AM 35.4 °F 28.4 °F 31.3 °F 85% 29.70 in 10.0 mi SW 9.2 mph 26.5 mph N/A   Overcast
12:35 AM 35.2 °F 25.8 °F 30.7 °F 84% 29.71 in 10.0 mi WSW 15.0 mph 23.0 mph N/A   Overcast
12:55 AM 35.1 °F 25.9 °F 30.7 °F 84% 29.71 in 10.0 mi WSW 13.8 mph 21.9 mph N/A   Overcast
1:14 AM 34.9 °F 25.7 °F 30.7 °F 85% 29.72 in 10.0 mi WSW 13.8 mph 21.9 mph N/A   Overcast
1:35 AM 34.3 °F 24.2 °F 30.4 °F 85% 29.72 in 10.0 mi WSW 16.1 mph 23.0 mph N/A   Overcast
1:54 AM 34.3 °F 24.6 °F 30.4 °F 85% 29.73 in 10.0 mi WSW 15.0 mph 21.9 mph N/A   Overcast
2:14 AM 34.2 °F 26.2 °F 30.6 °F 87% 29.73 in 10.0 mi WSW 10.4 mph 18.4 mph N/A   Overcast
2:35 AM 34.0 °F 24.2 °F 30.6 °F 87% 29.73 in 10.0 mi WSW 15.0 mph 20.7 mph N/A   Overcast
2:54 AM 34.0 °F 24.6 °F 30.7 °F 88% 29.74 in 10.0 mi WSW 13.8 mph 21.9 mph N/A   Overcast
3:14 AM 33.3 °F 23.2 °F 30.9 °F 91% 29.74 in 5.0 mi WSW 15.0 mph 24.2 mph N/A   Overcast
3:35 AM 33.1 °F 24.4 °F 31.5 °F 94% 29.74 in 5.0 mi WSW 11.5 mph 19.6 mph N/A   Overcast
3:54 AM 32.7 °F 25.0 °F 31.3 °F 94% 29.74 in 4.0 mi West 9.2 mph - N/A   Overcast
4:14 AM 32.7 °F 23.0 °F 31.5 °F 95% 29.75 in 4.0 mi WSW 13.8 mph 17.3 mph N/A   Overcast
4:35 AM 32.7 °F 25.0 °F 31.3 °F 94% 29.74 in 7.0 mi West 9.2 mph 17.3 mph N/A   Overcast
4:54 AM 32.7 °F 24.5 °F 30.9 °F 93% 29.74 in 7.0 mi West 10.4 mph - N/A Snow Light Snow
5:14 AM 33.1 °F 24.9 °F 30.7 °F 91% 29.75 in 10.0 mi West 10.4 mph 17.3 mph N/A   Overcast
5:35 AM 33.1 °F 24.9 °F 30.2 °F 89% 29.76 in 10.0 mi West 10.4 mph 21.9 mph N/A   Overcast
5:54 AM 33.3 °F 25.1 °F 30.0 °F 88% 29.77 in 10.0 mi West 10.4 mph 18.4 mph N/A   Overcast
6:15 AM 33.3 °F 24.6 °F 29.8 °F 87% 29.78 in 10.0 mi WSW 11.5 mph 17.3 mph N/A   Overcast
6:35 AM 33.1 °F 24.9 °F 29.7 °F 87% 29.78 in 10.0 mi WSW 10.4 mph - N/A   Overcast
6:54 AM 32.7 °F 25.0 °F 29.7 °F 88% 29.79 in 7.0 mi WSW 9.2 mph - N/A   Overcast
7:15 AM 32.7 °F 25.7 °F 29.8 °F 89% 29.79 in 10.0 mi WSW 8.1 mph - N/A   Overcast
7:34 AM 32.5 °F 23.7 °F 30.0 °F 90% 29.79 in 4.0 mi WSW 11.5 mph 16.1 mph N/A Snow Light Snow
7:54 AM 32.5 °F 24.2 °F 30.2 °F 91% 29.80 in 7.0 mi West 10.4 mph 19.6 mph N/A   Overcast
8:15 AM 32.5 °F 24.2 °F 29.5 °F 88% 29.80 in 10.0 mi West 10.4 mph 17.3 mph N/A   Overcast
8:34 AM 32.4 °F 23.0 °F 29.5 °F 89% 29.81 in 7.0 mi West 12.7 mph 17.3 mph N/A   Overcast
8:54 AM 32.4 °F 23.5 °F 29.8 °F 90% 29.81 in 4.0 mi West 11.5 mph 16.1 mph N/A   Overcast
9:15 AM 32.2 °F 23.8 °F 29.8 °F 91% 29.83 in 3.0 mi WSW 10.4 mph - N/A Snow Light Snow
9:34 AM 31.8 °F 23.3 °F 29.7 °F 92% 29.83 in 3.0 mi West 10.4 mph 19.6 mph N/A   Overcast
9:54 AM 32.2 °F 22.7 °F 29.8 °F 91% 29.83 in 3.0 mi WSW 12.7 mph - N/A Snow Light Snow
10:15 AM 32.2 °F 24.4 °F 29.7 °F 90% 29.84 in 5.0 mi WSW 9.2 mph 19.6 mph N/A Snow Light Snow
10:34 AM 32.4 °F 24.6 °F 29.1 °F 88% 29.84 in 7.0 mi WSW 9.2 mph 13.8 mph N/A Snow Light Snow
10:55 AM 32.5 °F 24.2 °F 29.1 °F 87% 29.84 in 2.5 mi WSW 10.4 mph - N/A Snow Light Snow
11:15 AM 32.5 °F 23.7 °F 29.5 °F 88% 29.84 in 3.0 mi WSW 11.5 mph - N/A Snow Light Snow
11:34 AM 32.5 °F 23.7 °F 28.9 °F 87% 29.84 in 4.0 mi WSW 11.5 mph 16.1 mph N/A Snow Light Snow
11:55 AM 31.8 °F 21.8 °F 28.8 °F 88% 29.84 in 5.0 mi WSW 13.8 mph - N/A Snow Light Snow
12:14 PM 31.8 °F 22.3 °F 28.6 °F 88% 29.85 in 5.0 mi WSW 12.7 mph 19.6 mph N/A Snow Light Snow
12:34 PM 32.0 °F 22.1 °F 28.4 °F 87% 29.86 in 7.0 mi West 13.8 mph 17.3 mph N/A   Overcast
12:55 PM 31.8 °F 21.4 °F 27.9 °F 85% 29.86 in 7.0 mi West 15.0 mph 20.7 mph N/A   Overcast
1:14 PM 32.4 °F 24.0 °F 27.7 °F 83% 29.86 in 10.0 mi WSW 10.4 mph 18.4 mph N/A   Overcast
1:34 PM 32.5 °F 24.2 °F 27.0 °F 80% 29.86 in 10.0 mi WSW 10.4 mph 18.4 mph N/A   Overcast
1:55 PM 32.7 °F 23.0 °F 26.2 °F 77% 29.86 in 10.0 mi WSW 13.8 mph 20.7 mph N/A   Overcast
2:14 PM 32.5 °F 22.7 °F 26.6 °F 79% 29.86 in 7.0 mi WSW 13.8 mph 20.7 mph N/A   Overcast
2:34 PM 32.5 °F 22.7 °F 26.6 °F 79% 29.86 in 10.0 mi SW 13.8 mph 20.7 mph N/A   Overcast
2:55 PM 33.1 °F 23.0 °F 25.5 °F 74% 29.85 in 10.0 mi WSW 15.0 mph 23.0 mph N/A   Overcast
3:14 PM 33.3 °F 24.6 °F 26.1 °F 75% 29.85 in 10.0 mi WSW 11.5 mph 17.3 mph N/A   Overcast
3:35 PM 32.5 °F 21.9 °F 25.0 °F 74% 29.86 in 10.0 mi WSW 16.1 mph 20.7 mph N/A   Overcast
3:54 PM 32.7 °F 23.9 °F 25.0 °F 73% 29.86 in 10.0 mi WSW 11.5 mph 18.4 mph N/A   Overcast
4:15 PM 33.1 °F 23.4 °F 25.0 °F 72% 29.86 in 10.0 mi West 13.8 mph 18.4 mph N/A   Overcast
4:35 PM 32.7 °F 23.0 °F 24.6 °F 72% 29.86 in 10.0 mi West 13.8 mph 23.0 mph N/A   Overcast
4:54 PM 32.9 °F 24.7 °F 24.4 °F 71% 29.86 in 10.0 mi WSW 10.4 mph 20.7 mph N/A   Overcast
5:15 PM 32.5 °F 22.7 °F 25.0 °F 74% 29.86 in 10.0 mi West 13.8 mph 19.6 mph N/A   Overcast
5:35 PM 32.7 °F 23.9 °F 25.5 °F 75% 29.87 in 10.0 mi WSW 11.5 mph 17.3 mph N/A   Overcast
5:54 PM 32.7 °F 24.5 °F 26.4 °F 78% 29.87 in 7.0 mi WSW 10.4 mph 18.4 mph N/A Snow Light Snow
6:15 PM 32.5 °F 23.7 °F 26.8 °F 79% 29.87 in 5.0 mi WSW 11.5 mph 18.4 mph N/A Snow Light Snow
6:34 PM 32.5 °F 23.7 °F 27.5 °F 82% 29.87 in 5.0 mi WSW 11.5 mph - N/A Snow Light Snow
6:54 PM 32.4 °F 23.5 °F 27.7 °F 83% 29.88 in 5.0 mi WSW 11.5 mph - N/A Snow Light Snow
7:15 PM 32.0 °F 23.0 °F 27.1 °F 82% 29.89 in 2.5 mi West 11.5 mph 23.0 mph N/A Snow Light Snow
7:34 PM 31.5 °F 24.9 °F 27.0 °F 83% 29.88 in 10.0 mi WSW 6.9 mph - N/A Snow Light Snow
7:54 PM 31.1 °F 26.4 °F 26.6 °F 83% 29.88 in 10.0 mi WSW 4.6 mph - N/A   Scattered Clouds
8:15 PM 30.9 °F 25.2 °F 25.9 °F 82% 29.89 in 10.0 mi West 5.8 mph - N/A   Clear
8:34 PM 31.5 °F 25.8 °F 25.3 °F 78% 29.89 in 10.0 mi WSW 5.8 mph - N/A   Mostly Cloudy
8:55 PM 31.1 °F 26.4 °F 25.2 °F 79% 29.89 in 10.0 mi SW 4.6 mph - N/A   Overcast
9:15 PM 30.7 °F 27.3 °F 25.5 °F 81% 29.89 in 10.0 mi SW 3.5 mph - N/A   Overcast
9:34 PM 30.7 °F 24.9 °F 25.3 °F 80% 29.89 in 10.0 mi SW 5.8 mph - N/A   Overcast
9:55 PM 30.9 °F 26.2 °F 25.2 °F 79% 29.89 in 10.0 mi SW 4.6 mph - N/A   Overcast
10:14 PM 30.9 °F 23.5 °F 26.1 °F 82% 29.89 in 3.0 mi SW 8.1 mph - N/A Snow Light Snow
10:35 PM 30.4 °F 24.5 °F 27.7 °F 90% 29.89 in 2.5 mi SW 5.8 mph - N/A Snow Light Snow
10:55 PM 30.4 °F 22.2 °F 28.2 °F 92% 29.89 in 5.0 mi SSW 9.2 mph - N/A Snow Light Snow
11:14 PM 30.6 °F 22.4 °F 28.4 °F 92% 29.88 in 7.0 mi SW 9.2 mph 16.1 mph N/A   Overcast
11:35 PM 30.9 °F 24.3 °F 27.9 °F 88% 29.88 in 5.0 mi WSW 6.9 mph - N/A Snow Light Snow
11:55 PM 30.9 °F 23.5 °F 28.0 °F 89% 29.88 in 1.8 mi WSW 8.1 mph - N/A Snow Light Snow